Flag for United Kingdom Weather past 2 weeks in Liverpool, England, United Kingdom

48 °F

Sprinkles. Passing clouds.

Feels Like: 43 °F
Forecast: 49 / 53 °F
Wind: 14 mph from Southwest

Location: Liverpool Airport

Current Time: Nov 29, 2015 at 5:59:31 AM

Latest Report: Nov 29, 2015 at 5:20 AM

Visibility: N/A

Pressure: 29.53 "Hg

Humidity: 82%

Dew point: 43 °F

Location of LiverpoolLocation

Historic Weather in Liverpool — Graph


Liverpool temperature yesterday

Maximum temperature yesterday: 48 °F (at 2:20 PM)
Minimum temperature yesterday: 41 °F (at 4:20 AM)
Average temperature yesterday: 45 °F

Past Weeks' High & Low Weather Summary

High61 °F (Nov 14, 9:20 PM)100% (Nov 14, 1:20 PM)30.24 "Hg (Nov 14, 1:20 PM)
Low32 °F (Nov 23, 5:20 AM)49% (Nov 21, 1:20 PM)29.24 "Hg (Nov 17, 2:50 PM)
Average48 °F86%29.80 "Hg
* Reported Nov 14 4:50 AM — Nov 29 4:20 AM, Liverpool, Weather by CustomWeather, © 2015

Note: Actual official high and low records may vary slightly from our data, if they occured in-between our weather recording intervals... More about our weather records


Liverpool weather history for previous 24 hours

Time TempWeatherWind HumidityBarometerVisibility
4:20 AM
Sun, Nov 29
46 °FSprinkles. Passing clouds.10 mph87%29.56 "HgN/A
3:50 AM46 °FSprinkles. Passing clouds.14 mph93%29.56 "HgN/A
3:20 AM48 °FSprinkles. Passing clouds.22 mph82%29.56 "HgN/A
2:50 AM46 °FSprinkles. Passing clouds.20 mph87%29.56 "HgN/A
2:20 AM48 °FRain. Passing clouds.23 mph82%29.56 "Hg6 mi
1:50 AM48 °FPassing clouds.16 mph82%29.56 "HgN/A
1:20 AM48 °FClear.16 mph76%29.56 "Hg10 mi
12:50 AM48 °FClear.14 mph71%29.56 "Hg10 mi
12:20 AM48 °FPassing clouds.15 mph76%29.56 "HgN/A
11:20 PM
Sat, Nov 28
48 °FPassing clouds.12 mph76%29.53 "HgN/A
10:50 PM46 °FPassing clouds.13 mph82%29.53 "HgN/A
9:50 PM46 °FScattered showers. Passing clouds.14 mph87%29.53 "HgN/A
9:20 PM46 °FScattered showers. Passing clouds.15 mph87%29.53 "HgN/A
8:20 PM48 °FSprinkles. Passing clouds.17 mph76%29.53 "HgN/A
7:50 PM48 °FSprinkles. Passing clouds.16 mph76%29.50 "HgN/A
7:20 PM46 °FSprinkles. Passing clouds.15 mph82%29.50 "HgN/A
6:50 PM46 °FPassing clouds.15 mph82%29.50 "HgN/A
6:20 PM48 °FPassing clouds.15 mph82%29.50 "HgN/A
5:50 PM46 °FPassing clouds.12 mph87%29.50 "HgN/A
5:20 PM48 °FPassing clouds.16 mph82%29.50 "HgN/A
4:50 PM48 °FPassing clouds.15 mph87%29.50 "HgN/A
4:20 PM48 °FScattered showers. Passing clouds.17 mph82%29.50 "HgN/A
3:50 PM48 °FSprinkles. Scattered clouds.15 mph87%29.50 "HgN/A
3:20 PM48 °FRain showers. Partly sunny.14 mph87%29.50 "HgN/A
2:50 PM48 °FSprinkles. Partly sunny.18 mph87%29.50 "HgN/A
2:20 PM48 °FSprinkles. Partly sunny.14 mph87%29.53 "HgN/A
1:50 PM46 °FRain showers. Partly sunny.18 mph93%29.53 "HgN/A
1:20 PM46 °FRain showers. Partly sunny.22 mph87%29.56 "HgN/A
12:50 PM46 °FRain showers. Partly sunny.23 mph87%29.59 "HgN/A
12:20 PM45 °FRain showers. Partly sunny.20 mph93%29.62 "HgN/A
11:50 AM45 °FSprinkles. Partly sunny.21 mph87%29.65 "HgN/A
11:20 AM46 °FScattered showers. Scattered clouds.18 mph82%29.65 "HgN/A
10:50 AM46 °FSprinkles. Scattered clouds.17 mph82%29.71 "HgN/A
10:20 AM45 °FScattered clouds.10 mph81%29.71 "HgN/A
9:50 AM45 °FPassing clouds.10 mph81%29.74 "HgN/A
9:20 AM43 °FPassing clouds.14 mph81%29.74 "HgN/A
8:50 AM43 °FPassing clouds.13 mph87%29.77 "HgN/A
8:20 AM43 °FPassing clouds.14 mph81%29.77 "HgN/A
7:50 AM43 °FPassing clouds.15 mph81%29.77 "HgN/A
6:20 AM41 °FClear.10 mph81%29.80 "Hg10 mi
5:50 AM41 °FClear.15 mph81%29.83 "Hg10 mi
5:20 AM41 °FPassing clouds.18 mph81%29.83 "HgN/A
Weather by CustomWeather, © 2015

See weather overviewHow to use our weather pages